Hourly Data Report for August 04, 2020

LYTTON RCS
BRITISH COLUMBIA
Current Station Operator: ECCC - MSC

50°13'28.000" N
121°34'55.000" W
225.00 m
1114746
71765
VLY

Download Data

Hourly Data (August 2020)
Hourly Data Report for August 4, 2020
TIME Temp Definition
°C
Dew Point Definition
°C
Rel Hum Definition
%
Wind Dir Definition
10's deg

Wind Spd Definition
km/h
Visibility Definition
km
Stn Press Definition
kPa
Hmdx Definition


Wind Chill Definition


Weather Definition


00:00 21.1 12.0 56 17 25   99.17     LegendNANA
01:00 20.6 12.3 59 18 19   99.19     LegendNANA
02:00 19.8 12.0 61 17 12   99.23     LegendNANA
03:00 18.5 12.0 66 18 6   99.27     LegendNANA
04:00 17.4 11.9 70 19 4   99.30     LegendNANA
05:00 16.3 11.5 73 20 2   99.34     LegendNANA
06:00 16.1 11.8 76 19 5   99.38     LegendNANA
07:00 16.1 11.9 76 16 10   99.37     LegendNANA
08:00 19.7 11.4 59 15 8   99.30     LegendNANA
09:00 21.8 9.7 46 19 3   99.21     LegendNANA
10:00 25.6 9.0 35 28 1   99.13 26   LegendNANA
11:00 27.3 8.9 31 18 4   99.00 28   LegendNANA
12:00 31.3 8.9 25 17 9   98.88 32   LegendNANA
13:00 33.1 7.9 21 17 10   98.76 33   LegendNANA
14:00 34.6 7.6 19 18 20   98.63 35   LegendNANA
15:00 34.7 7.6 19 19 19   98.54 35   LegendNANA
16:00 34.6 8.0 20 19 21   98.47 35   LegendNANA
17:00 33.7 7.9 20 19 19   98.39 34   LegendNANA
18:00 31.4 8.7 25 19 18   98.34 32   LegendNANA
19:00 29.4 9.5 29 19 17   98.33 30   LegendNANA
20:00 28.8 8.9 29 19 22   98.37 30   LegendNANA
21:00 27.6 9.6 33 20 23   98.41 29   LegendNANA
22:00 26.6 11.6 39 21 22   98.43 29   LegendNANA
23:00 25.0 12.3 45 20 19   98.44 27   LegendNANA

Notes on Data Quality.

Legend

  • E = Estimated
  • M = Missing
  • NA = Not Available*
  • [empty] = Indicates an unobserved value
Date modified: